Location: Columbia
(38.9520°N, 92.3340°W)
Time: 02:05:48
(UTC-06:00)

Cosmos 1633 - Visible Passes

Search period start: 24 November 2014 00:00
Search period end: 04 December 2014 00:00
Orbit: 493 x 514 km, 82.5° (Epoch: 23 November)

Date Brightness Start Highest point End Pass type
(mag) Time Alt. Az. Time Alt. Az. Time Alt. Az.
26 Nov 4.5 17:30:32 10° NE 17:31:46 11° ENE 17:33:00 10° E visible
26 Nov 3.9 19:03:54 10° NNW 19:07:27 40° W 19:10:57 10° SSW visible
27 Nov 3.2 18:45:01 10° NNW 18:48:43 58° W 18:52:22 10° S visible
28 Nov 2.6 18:26:11 10° N 18:29:57 83° W 18:33:40 10° S visible
29 Nov 2.5 18:07:24 10° N 18:11:09 69° E 18:14:50 10° SSE visible
30 Nov 5.2 06:19:11 10° SE 06:22:20 25° E 06:25:30 10° NE visible
30 Nov 2.8 17:48:39 10° N 17:52:18 48° E 17:55:53 10° SSE visible
01 Dec 5.7 06:00:54 10° SE 06:03:35 19° E 06:06:17 10° NE visible
01 Dec 3.2 17:29:58 10° NNE 17:33:25 34° ENE 17:36:49 10° SE visible
01 Dec 6.0 19:06:50 10° WNW 19:08:29 13° W 19:10:08 10° WSW visible
02 Dec 5.9 05:42:52 10° ESE 05:44:50 14° E 05:46:48 10° NE visible
02 Dec 5.6 18:47:15 10° NW 18:49:44 17° W 18:52:12 10° SW visible
03 Dec 5.1 18:27:56 10° NW 18:30:56 23° W 18:33:55 10° SW visible
